EHI
0 0 0 0 0 0 0 0 0 0 1 0 0 0 1 2 5 9 12 10 8 9 15 21 23 22 19 16 12 10 9 8 8 8 7 5 4 6 7 6 5 4 4 4
0 0 0 0 0 0 0 0 0 0 1 0 0 0 0 1 4 9 11 11 10 12 18 23 25 24 23 21 16 14 14 13 11 9 7 5 4 5 6 6 5 4 4 5
0 0 0 0 0 0 0 0 0 0 0 0 0 0 0 1 4 8 10 11 13 17 22 27 28 29 30 28 23 20 21 22 18 12 9 7 6 5 5 5 5 5 5 5
0 0 0 0 0 0 0 0 0 0 0 0 0 0 0 1 5 8 9 10 14 20 25 29 32 36 37 34 29 26 26 27 25 19 14 11 9 6 4 4 5 5 5 5
0 0 0 0 0 0 0 0 0 0 0 0 0 0 0 1 4 7 9 11 16 22 26 28 33 39 40 37 32 29 29 30 28 24 19 15 12 7 4 4 4 4 4 5
0 0 0 0 0 0 0 0 0 0 0 0 0 0 0 1 2 5 8 11 16 22 25 26 30 37 43 43 39 34 34 33 30 25 21 17 14 10 8 7 5 4 5 5
0 0 0 0 0 0 0 0 0 0 0 0 0 0 0 1 2 3 7 11 16 20 22 23 26 34 44 49 47 44 41 37 33 28 22 19 17 15 13 12 9 7 6 6
0 0 0 0 0 0 0 0 0 0 0 0 0 0 1 3 4 5 8 13 17 20 20 20 23 32 44 51 52 51 47 42 37 33 27 22 19 18 17 15 12 9 6 6
0 0 0 0 0 0 0 0 0 0 0 0 0 1 3 5 7 8 11 15 19 22 23 23 23 28 40 48 50 52 51 45 41 38 33 26 21 20 20 18 13 8 5 5
0 0 0 0 0 0 0 0 0 0 0 0 0 1 3 4 7 9 12 15 21 25 27 27 26 27 32 42 49 53 52 47 43 41 37 31 26 24 23 20 14 8 5 5
0 0 0 0 0 0 0 0 0 0 0 0 0 1 3 5 7 9 11 15 23 28 29 29 29 29 31 40 51 55 53 50 46 42 39 36 32 28 23 18 15 10 7 6
0 0 0 0 0 0 0 0 0 0 0 0 0 1 3 5 8 10 12 17 25 30 31 32 32 33 35 41 50 56 55 53 50 46 44 41 38 31 23 18 16 13 9 7
0 0 0 0 0 0 0 0 0 0 0 0 0 1 3 6 10 12 14 19 25 29 33 35 34 34 36 41 48 54 56 56 55 54 52 48 43 35 27 22 19 14 9 6
0 0 0 0 0 0 0 0 0 0 0 0 0 2 5 9 12 13 14 18 23 27 31 34 33 33 35 41 47 51 55 58 60 59 58 54 46 40 34 28 21 14 9 8
0 0 0 0 0 0 0 0 1 1 0 0 1 3 7 12 16 17 19 22 26 29 31 32 32 33 34 40 47 50 53 58 62 63 61 55 48 43 38 32 24 16 12 12
0 0 0 0 0 0 0 1 2 2 1 2 2 4 10 17 21 24 27 31 32 33 33 32 33 34 36 41 47 50 53 58 63 66 64 57 51 45 39 33 28 22 18 16
0 0 0 0 0 0 0 1 2 4 5 5 6 10 18 23 24 28 32 36 38 38 38 35 33 35 38 41 46 50 54 58 63 65 65 60 53 46 39 34 32 27 21 18
0 0 0 0 0 0 1 1 2 5 8 8 11 19 25 25 25 27 31 35 37 39 40 37 34 35 38 40 44 49 54 58 60 60 61 59 53 44 38 35 34 29 23 22
0 0 0 0 0 0 1 2 1 3 7 10 15 22 23 23 24 25 26 28 30 34 36 35 33 35 38 41 44 48 53 56 56 54 54 53 49 43 38 35 32 27 24 24
0 0 0 0 0 0 1 2 1 2 6 11 16 18 17 16 17 19 21 24 27 30 31 32 33 34 38 42 45 48 52 54 54 50 49 48 44 39 36 33 28 24 23 24
0 0 0 0 0 0 1 2 2 3 7 12 15 14 13 13 14 17 20 24 29 31 31 34 37 37 39 42 45 48 50 50 50 48 46 44 40 35 31 29 25 21 21 23
0 0 0 0 0 0 1 3 4 5 9 13 14 13 15 17 19 22 25 28 30 32 34 37 40 41 42 43 45 46 47 46 47 47 46 43 38 33 28 26 23 19 19 21
0 0 0 0 0 0 1 3 5 7 10 14 15 15 18 23 26 29 31 31 32 34 36 38 40 41 43 44 45 45 44 44 46 48 47 42 37 33 27 25 22 18 17 19
0 0 1 1 1 1 2 4 6 7 10 15 16 16 20 26 30 31 31 30 31 33 34 36 37 37 38 40 41 40 40 41 44 45 43 40 36 31 26 24 21 17 15 15
0 0 1 2 3 4 4 4 6 6 7 13 15 15 17 22 26 28 28 26 25 27 30 31 31 31 31 31 31 29 30 35 38 38 37 36 35 31 25 21 18 14 11 10
0 0 1 2 4 5 5 4 4 4 5 10 13 14 15 18 21 24 26 24 21 22 26 28 27 26 25 24 23 21 22 28 34 35 33 34 34 31 26 21 15 10 7 6
Wind_Speed
3 3 3 8 8 8 6 4 4 5 5 5 6 8 11 12 11 11 10 10 11 10 9 10 11 11 9 8 7 7 6 5 4 2 2 2 1 1 1 1 2 3 2 2
4 5 10 7 6 5 4 4 2 1 3 5 5 6 10 12 14 14 14 13 12 9 8 9 9 10 9 9 8 7 7 6 5 3 3 2 2 1 1 1 2 2 2 2
6 9 7 5 6 4 4 5 6 5 2 4 5 0 4 6 7 9 10 11 12 14 14 12 11 10 10 10 9 8 7 6 6 5 2 2 1 1 1 0 1 1 2 2
6 8 6 5 6 5 4 5 7 7 5 0 4 2 5 5 5 8 10 11 12 12 12 12 12 11 12 11 9 8 7 6 5 5 4 4 3 2 3 2 2 1 1 2
7 5 4 5 7 5 5 5 6 6 5 2 2 3 6 3 6 9 11 12 12 13 14 14 14 13 12 11 9 8 7 6 6 5 6 5 3 3 1 1 2 1 1 1
8 5 4 6 5 4 5 6 6 6 5 1 4 4 5 6 10 9 9 10 11 13 13 13 12 11 10 10 9 8 8 6 6 6 6 6 5 4 3 2 2 1 0 0
7 8 5 2 1 2 5 7 4 4 4 4 3 3 8 9 9 11 10 10 11 13 13 13 12 12 11 12 11 9 9 7 7 7 6 6 6 5 5 4 4 3 1 1
4 8 6 4 6 5 3 10 9 5 5 4 2 4 8 6 7 7 7 9 9 10 12 13 13 13 13 13 12 11 10 8 8 7 6 5 5 4 3 4 4 4 3 2
6 8 7 5 4 7 4 4 9 8 3 1 3 4 6 2 1 3 5 6 9 10 10 11 11 12 12 13 13 12 11 9 9 8 7 5 5 5 5 4 3 3 3 2
8 4 7 5 1 1 7 7 6 6 5 2 2 3 5 4 3 3 5 7 7 8 8 8 8 9 11 11 11 11 11 10 9 8 7 7 6 5 5 4 4 4 3 3
6 5 6 3 3 5 1 3 5 5 6 7 3 6 7 9 8 9 8 8 8 9 9 9 8 8 9 9 9 10 10 8 8 8 7 6 5 5 5 5 5 4 3 3
5 7 3 6 5 4 5 5 7 6 4 5 5 7 7 9 8 9 8 7 7 7 8 7 7 8 8 9 9 10 10 9 9 8 7 6 6 6 5 5 5 4 4 3
5 7 2 7 8 5 1 2 4 6 5 4 5 6 2 5 5 6 7 7 6 6 6 6 6 7 8 9 8 9 9 9 8 8 7 7 6 7 6 5 5 4 4 4
7 6 7 9 7 3 3 2 1 6 4 4 6 5 3 5 6 5 5 6 6 6 6 7 6 6 7 7 7 8 8 8 8 8 8 7 7 7 7 6 5 5 5 4
7 4 3 4 4 1 2 3 1 2 6 8 7 7 9 9 8 7 6 6 6 6 7 8 8 6 6 7 7 7 7 8 8 8 8 8 7 7 6 6 6 5 5 5
5 4 2 2 2 2 3 4 1 1 2 4 5 5 6 5 5 6 6 8 8 6 7 7 8 8 8 8 8 8 8 7 7 9 8 7 7 7 7 7 6 6 5 4
2 5 4 2 3 4 4 4 2 2 2 5 5 6 5 7 8 8 8 8 8 6 5 6 7 8 7 7 7 8 8 7 8 8 7 7 8 7 7 7 7 6 6 5
5 4 4 2 2 3 8 4 3 4 1 2 4 5 7 9 7 6 7 9 8 6 5 5 5 6 6 5 5 6 6 7 8 8 7 7 7 7 7 7 7 6 5 6
6 7 4 4 2 4 5 3 1 4 2 2 6 7 6 7 7 4 1 5 7 6 5 4 4 5 5 5 6 6 7 7 7 7 8 8 8 8 7 7 7 6 5 5
4 6 6 4 3 5 6 6 1 7 1 3 3 6 5 6 5 3 2 3 3 3 3 3 3 3 4 4 6 7 7 7 7 8 8 8 8 8 8 8 7 5 5 5
3 4 4 4 3 5 7 7 2 4 5 3 2 4 4 4 6 5 4 4 3 4 3 4 3 3 3 4 5 5 6 7 8 7 6 7 8 8 8 6 5 5 5 5
5 4 4 4 3 7 6 3 3 4 2 1 3 3 5 5 4 5 5 5 4 3 3 4 3 2 1 3 5 4 5 6 5 6 7 7 7 6 6 6 5 5 6 6
3 6 6 6 7 5 1 3 3 4 4 2 2 2 5 6 5 5 4 4 3 3 2 3 3 2 2 2 3 4 3 3 5 6 6 6 6 5 5 6 6 5 5 5
3 1 4 2 2 1 1 2 3 3 4 2 3 3 4 5 5 5 4 3 2 2 2 2 4 3 2 1 1 2 2 3 5 6 6 5 6 5 4 4 5 5 5 5
3 1 2 1 1 2 3 1 1 3 4 4 3 3 4 5 4 4 4 3 2 2 2 3 3 2 0 1 1 1 1 2 4 5 4 4 5 5 4 4 4 6 6 7
3 3 4 4 4 3 2 1 3 4 3 3 4 3 3 4 3 3 3 2 2 2 2 3 2 1 0 0 0 1 0 2 3 4 4 4 4 4 4 4 2 2 3 5
Wind_Direction
322 68 236 223 204 205 197 197 212 226 179 148 167 170 178 177 177 177 179 181 179 180 176 167 165 163 159 160 160 159 158 166 150 139 142 143 172 188 179 192 188 172 167 159
1 269 241 228 231 224 209 184 183 199 146 133 157 182 184 181 186 184 183 185 185 176 169 170 168 168 168 169 169 164 165 170 168 168 169 168 166 185 193 196 183 184 172 167
217 246 253 235 241 231 232 179 176 174 90 79 103 7 201 205 193 191 191 187 185 182 178 177 175 175 171 174 177 174 173 170 173 168 147 120 78 48 51 155 200 203 173 176
243 251 258 246 238 208 234 204 166 149 118 196 123 182 261 214 208 199 198 193 190 190 182 179 177 178 180 182 178 174 172 171 171 162 157 158 165 183 207 200 198 207 177 171
253 250 243 242 242 196 196 158 134 131 127 95 44 133 267 220 208 213 205 201 195 189 184 185 184 183 183 179 175 174 170 171 170 168 168 166 177 190 187 164 160 181 195 178
257 263 229 227 244 186 146 77 49 58 80 122 221 165 247 218 208 210 205 200 195 189 187 188 187 179 177 176 173 171 170 176 175 174 175 177 182 179 168 174 171 172 174 194
299 297 278 225 267 316 102 92 46 10 21 245 228 173 237 228 211 202 196 199 196 189 185 185 184 181 181 178 177 175 174 180 182 180 184 185 183 178 179 183 178 168 168 193
224 278 268 222 181 189 174 134 152 184 204 259 290 226 252 231 206 191 182 184 177 181 185 189 189 186 183 180 178 176 179 184 185 184 188 188 182 175 180 182 171 174 181 192
191 247 273 247 201 154 159 165 164 143 161 141 270 283 307 294 188 165 161 167 176 180 181 189 190 186 183 181 181 179 180 183 185 185 179 181 181 177 177 176 166 167 176 175
172 232 279 279 312 229 165 156 104 120 147 197 266 256 230 238 221 193 178 176 183 176 173 181 189 187 184 183 180 176 179 184 184 184 182 184 184 181 175 166 167 169 174 158
158 177 288 334 199 221 169 123 119 126 151 151 194 259 226 200 192 188 190 182 173 175 174 177 184 176 173 170 169 173 177 176 178 183 185 181 179 176 169 165 164 162 161 149
170 140 236 260 258 206 169 172 145 149 199 161 163 251 238 193 194 186 185 180 162 166 169 169 167 160 160 164 168 173 178 178 182 181 178 176 171 163 161 161 160 154 149 145
138 118 105 332 333 350 53 157 142 131 126 149 161 251 257 183 188 180 173 169 160 155 150 147 152 161 170 168 167 173 181 183 180 173 170 169 168 167 167 163 158 150 145 141
118 116 157 192 216 243 292 300 104 119 141 181 200 209 216 182 173 175 157 152 149 145 146 144 152 166 172 167 168 172 182 182 176 171 170 175 177 174 170 163 153 152 151 146
103 126 167 205 222 216 260 275 247 162 181 177 202 191 205 198 179 169 155 152 145 141 152 156 157 165 174 173 173 177 182 181 175 170 176 183 176 169 165 159 156 156 155 155
82 121 93 337 341 6 319 295 265 176 155 173 167 205 211 178 132 133 147 145 144 147 157 160 160 167 180 182 181 181 184 181 173 173 176 173 168 167 167 163 159 157 157 155
74 108 102 271 326 27 304 269 200 191 175 161 179 205 165 140 147 158 157 143 142 159 161 161 169 174 182 184 183 183 182 174 176 178 175 171 168 169 169 167 162 165 166 161
127 105 119 125 59 227 243 255 145 120 75 135 150 151 145 149 151 150 149 144 148 156 152 160 172 175 181 183 179 175 169 171 176 176 175 172 169 170 169 167 170 171 168 170
143 132 116 119 165 269 292 294 145 116 359 0 126 130 133 133 98 59 120 142 156 157 155 162 172 172 169 165 168 162 166 171 174 179 179 177 172 170 173 177 180 178 172 173
82 110 119 130 153 219 253 284 244 102 8 324 121 137 144 118 114 218 190 136 131 128 134 132 131 131 152 170 160 159 167 170 182 187 183 177 173 175 179 183 181 177 172 176
62 68 127 156 188 250 264 290 34 116 219 265 132 131 121 130 169 187 151 127 123 121 119 118 112 128 165 163 151 160 172 187 192 182 175 175 177 180 181 178 175 172 173 172
157 144 167 149 174 249 291 18 111 186 200 94 86 102 107 115 122 119 120 122 113 104 100 107 105 94 105 140 148 161 190 198 178 168 171 176 177 179 175 173 172 174 175 178
172 180 171 174 203 232 273 136 160 140 119 103 93 92 110 109 109 107 109 117 116 113 99 100 111 96 68 100 143 168 198 175 163 166 171 173 173 175 171 172 175 177 179 183
308 92 112 115 246 218 83 83 70 91 107 111 109 102 102 112 110 101 104 100 90 92 92 86 87 77 36 19 73 167 184 169 162 167 172 170 173 175 176 179 179 183 188 191
272 43 89 102 259 26 10 26 82 67 70 71 67 93 112 112 114 124 124 125 125 115 111 105 114 127 135 10 20 7 148 150 164 167 169 172 177 179 183 186 190 195 200 199
265 182 162 205 223 166 235 282 90 87 74 63 59 50 72 120 138 127 128 139 135 127 121 112 110 113 14 9 5 342 160 150 161 163 172 174 177 178 178 179 189 215 213 219